Regional Weather Roundup
Issued by NWS

Home | Current Version | Previous Version | Text Only | Print | Product List | Glossary Off
Versions: 1 2 3 4 5 6 7 8 9 10 11 12 13 14 15 16 17 18 19 20 21 22 23 24 25 26 27 28 29 30 31 32 33 34 35 36 37 38 39 40 41 42 43 44 45 46 47 48 49 50

000
ASUS44 KMEG 220910
RWRTN
TENNESSEE HOURLY STATE WEATHER ROUNDUP
NATIONAL WEATHER SERVICE MEMPHIS TN
400 AM CDT SAT JUL 22 2017

TNZ002-004-019-021-049-052-054-088>092-221000-
WEST TENNESSEE

CITY           SKY/WX    TMP DP  RH WIND       PRES   REMARKS
MEMPHIS INTL   CLEAR     81  76  84 CALM      29.94S
NWS MEMPHIS      N/A     77 N/A N/A MISG        N/A
JACKSON        CLEAR     78  76  93 S3        29.94S
SOMERVILLE       N/A     77  75  94 CALM      29.94R
COVINGTON      CLEAR     79  75  89 SW3       29.92F
UNION CITY     CLEAR     77  75  94 CALM      29.91S
BOLIVAR        CLEAR     75  73  94 SE5       29.95R
PARIS          PTCLDY    77  75  94 CALM      29.94R
HUNTINGDON     CLEAR     77  75  94 CALM      29.94R
SELMER         CLEAR     75  73  94 SW3       29.95S
SAVANNAH       PTCLDY    75  73  94 CALM      29.94S FOG
$$

TNZ008-025-027-028-033-062-065-066-221000-
NORTH MIDDLE TENNESSEE

CITY           SKY/WX    TMP DP  RH WIND       PRES   REMARKS
NASHVILLE      CLEAR     79  74  84 CALM      29.96R
PORTLAND       CLEAR     77  75  94 CALM      29.95S
CLARKSVILLE    CLEAR     76  73  91 S3        29.94R
SMYRNA         CLEAR     76  74  93 CALM      29.97
COOKEVILLE     FOG       72  72 100 CALM      29.98S VSB 1/2
GALLATIN       CLEAR     75  75 100 CALM      29.98R FOG
CROSSVILLE     CLEAR     71  69  93 CALM      30.05S
$$

TNZ061-075-076-078-094-096-097-221000-
SOUTH MIDDLE TENNESSEE

CITY           SKY/WX    TMP DP  RH WIND       PRES   REMARKS
FAYETTEVILLE   CLEAR     75  73  94 CALM      29.98S
TULLAHOMA      CLEAR     72  70  94 CALM      30.00S
WINCHESTER     CLEAR     72  72 100 CALM      29.99S
MCMINNVILLE    PTCLDY    72  72 100 CALM      29.99S
COLUMBIA       PTCLDY    75  75 100 CALM      29.94F
SHELBYVILLE    CLEAR     73  72  94 CALM      29.97S FOG
$$

TNZ017-018-042-046-047-221000-
NORTHEAST TENNESSEE

CITY           SKY/WX    TMP DP  RH WIND       PRES   REMARKS
TRI CITIES     CLEAR     69  69 100 CALM      30.02F
ELIZABETHTON   MOCLDY    70  68  94 CALM      30.03S
$$

TNZ012-013-036-069-073-074-221000-
CENTRAL EAST TENNESSEE

CITY           SKY/WX    TMP DP  RH WIND       PRES   REMARKS
KNOXVILLE      PTCLDY    77  71  82 CALM      29.98S
OAK RIDGE      CLEAR     75  72  90 CALM      30.00S
DOWNTOWN KNOXV CLEAR     73  73 100 CALM      29.98R FOG
GATLINBURG     CLEAR     72  66  83 CALM      29.99R
MORRISTOWN     PTCLDY    75  72  88 CALM      30.00R
JACKSBORO      FOG       72  72 100 CALM      30.03S VSB 1/2
$$

TNZ083-085-099-221000-
SOUTHEAST TENNESSEE

CITY           SKY/WX    TMP DP  RH WIND       PRES   REMARKS
CHATTANOOGA    CLEAR     77  73  87 CALM      29.97S
DAYTON         MOSUNNY   73  73 100 CALM      29.96S FOG
$$

SKY/WX REPORTED AS FAIR MEANS FEW OR NO CLOUDS BELOW
12 THOUSAND FEET.





USA.gov is the U.S. government's official web portal to all federal, state and local government web resources and services.